Flag for Denmark Weather past 2 weeks in Roskilde, Denmark

Now
50 °F

Partly sunny.


Feels Like: 47 °F
Forecast: 38 / 50 °F
Wind: 7 mph from West

Location: Koebenhavn / Roskilde

Current Time: Apr 26, 2015 at 7:48:23 AM

Latest Report: Apr 26, 2015 at 7:20 AM


Visibility: N/A

Pressure: 29.68 "Hg

Humidity: 88%

Dew point: 46 °F

Location of RoskildeLocation

Historic Weather in Roskilde — Graph

°F

Roskilde temperature yesterday

Maximum temperature yesterday: 59 °F (at 12:50 PM)
Minimum temperature yesterday: 43 °F (at 12:20 AM)
Average temperature yesterday: 51 °F

Past Weeks' High & Low Weather Summary

 TemperatureHumidityPressure
High64 °F (Apr 11, 4:20 PM)100% (Apr 13, 2:20 AM)30.33 "Hg (Apr 13, 2:20 AM)
Low32 °F (Apr 18, 3:50 AM)38% (Apr 20, 7:50 PM)29.62 "Hg (Apr 25, 7:20 PM)
Average48 °F75%30.02 "Hg
* Reported Apr 11 6:20 AM — Apr 26 6:50 AM, Roskilde, Weather by CustomWeather, © 2015

Note: Actual official high and low records may vary slightly from our data, if they occured in-between our weather recording intervals... More about our weather records

Advertising

Roskilde weather history for previous 24 hours

 ConditionsComfort  
Time TempWeatherWind HumidityBarometerVisibility
6:50 AM
Sun, Apr 26
50 °FPartly sunny.7 mph88%29.68 "Hg6 mi
6:20 AM48 °FPassing clouds.6 mph94%29.68 "Hg5 mi
5:50 AM48 °FOvercast.7 mph94%29.65 "Hg6 mi
5:20 AM50 °FPassing clouds.9 mph88%29.65 "HgN/A
4:50 AM48 °FOvercast.8 mph94%29.65 "Hg5 mi
4:20 AM50 °FPassing clouds.5 mph94%29.65 "Hg4 mi
3:50 AM50 °FPassing clouds.8 mph94%29.65 "Hg4 mi
3:20 AM48 °FPassing clouds.7 mph100%29.65 "Hg3 mi
2:50 AM48 °FPassing clouds.6 mph100%29.65 "Hg4 mi
2:20 AM50 °FPassing clouds.8 mph94%29.65 "Hg4 mi
1:50 AM50 °FLight rain. Passing clouds.8 mph94%29.65 "Hg4 mi
1:20 AM50 °FPassing clouds.9 mph94%29.65 "Hg4 mi
12:50 AM50 °FMostly cloudy.9 mph94%29.65 "Hg6 mi
12:20 AM50 °FPassing clouds.7 mph94%29.65 "Hg3 mi
11:20 PM
Sat, Apr 25
52 °FPassing clouds.8 mph94%29.65 "Hg3 mi
10:50 PM52 °FSprinkles. Fog.9 mph94%29.65 "Hg2 mi
10:20 PM52 °FSprinkles. Fog.9 mph94%29.65 "Hg1 mi
9:50 PM52 °FFog.8 mph94%29.65 "Hg2 mi
9:20 PM52 °FFog.8 mph94%29.65 "Hg2 mi
8:50 PM52 °FFog.8 mph94%29.62 "Hg2 mi
8:20 PM52 °FLight rain. Fog.7 mph100%29.62 "Hg2 mi
7:50 PM52 °FLight rain. Fog.7 mph94%29.62 "Hg2 mi
7:20 PM52 °FLight rain. Fog.7 mph94%29.62 "Hg3 mi
6:50 PM52 °FLight rain. Fog.7 mph94%29.65 "Hg3 mi
6:20 PM52 °FLight rain. Broken clouds.6 mph94%29.65 "Hg3 mi
5:50 PM54 °FLight rain. Partly sunny.6 mph88%29.65 "Hg4 mi
5:20 PM54 °FLight rain. Partly sunny.7 mph82%29.65 "Hg4 mi
4:50 PM54 °FLight rain. Broken clouds.12 mph82%29.65 "Hg3 mi
4:20 PM55 °FLight rain. Broken clouds.9 mph77%29.65 "HgN/A
3:50 PM55 °FLight rain. Broken clouds.12 mph77%29.65 "HgN/A
3:20 PM57 °FCool.10 mph67%29.65 "Hg5 mi
2:50 PM57 °FPassing clouds.12 mph72%29.65 "Hg5 mi
2:20 PM57 °FPassing clouds.12 mph77%29.65 "Hg4 mi
1:50 PM57 °FScattered clouds.14 mph72%29.65 "Hg3 mi
1:20 PM57 °FPassing clouds.15 mph72%29.65 "Hg3 mi
12:50 PM59 °FPassing clouds.16 mph72%29.65 "Hg3 mi
12:20 PM57 °FPassing clouds.20 mph67%29.65 "Hg3 mi
11:50 AM57 °FPartly sunny.15 mph67%29.65 "Hg4 mi
11:20 AM57 °FScattered clouds.15 mph67%29.65 "Hg4 mi
10:50 AM57 °FPartly sunny.13 mph67%29.65 "Hg4 mi
10:20 AM55 °FPassing clouds.7 mph82%29.65 "Hg3 mi
9:50 AM54 °FCool.8 mph82%29.65 "Hg4 mi
9:20 AM52 °FPassing clouds.7 mph88%29.65 "Hg4 mi
8:50 AM50 °FFog.6 mph88%29.65 "Hg2 mi
8:20 AM48 °FFog.3 mph94%29.65 "Hg2 mi
7:50 AM46 °FFog.3 mph100%29.68 "Hg2 mi
7:20 AM46 °FFog.3 mph93%29.68 "Hg2 mi
Weather by CustomWeather, © 2015

See weather overviewHow to use our weather pages